Regional Weather Roundup
Issued by NWS Newport/Morehead, NC

Current Version | Previous Version | Graphics & Text | Print | Product List | Glossary On
Versions: 1 2 3 4 5 6 7 8 9 10 11 12 13 14 15 16 17 18 19 20 21 22 23 24 25 26 27 28 29 30 31 32 33 34 35 36 37 38 39 40 41 42 43 44 45 46 47 48 49 50
000 ASUS42 KMHX 271213 RWRMHX WEATHER ROUNDUP FOR EASTERN NORTH CAROLINA NATIONAL WEATHER SERVICE NEWPORT/MOREHEAD CITY NC 800 AM EDT WED JUL 27 2016 NOTE: "FAIR" INDICATES FEW OR NO CLOUDS BELOW 12,000 FEET WITH NO SIGNIFICANT WEATHER AND/OR OBSTRUCTIONS TO VISIBILITY NCZ015>017-031-032-045>047-102-103-271300- NORTH COAST CITY SKY/WX TMP DP RH WIND PRES REMARKS EDENTON PTSUNNY 81 79 92 CALM 29.97S ELIZABETH CITY PTSUNNY 80 75 84 W3 29.97R KITTY HAWK CLOUDY 84 77 81 CALM 29.96R MANTEO N/A 81 80 97 W3 29.97R $$ NCZ045>047-081-094-103-104-271300- CENTRAL COAST CITY SKY/WX TMP DP RH WIND PRES REMARKS FRISCO CLOUDY 82 77 84 VRB7 29.98R $$ NCZ095-097-098-100-101-271300- SOUTHERN COAST CITY SKY/WX TMP DP RH WIND PRES REMARKS BEAUFORT SUNNY 83 76 79 W9 29.98R CEDAR ISLAND NOT AVBL JACKSONVILLE MOSUNNY 80 74 81 SW8 29.98R PINEY ISLAND NOT AVBL WILMINGTON SUNNY 82 75 79 SW12 29.99S $$ NCZ011>013-027>030-043-044-078>080-089-090>093-098-271300- COASTAL PLAIN CITY SKY/WX TMP DP RH WIND PRES REMARKS AHOSKIE MOSUNNY 76 74 94 CALM 29.98R CLINTON SUNNY 78 76 94 CALM 29.99R ELIZABETHTOWN MOSUNNY 80 75 86 W6 29.99S GOLDSBORO SUNNY 82 80 91 W8 29.96R GREENVILLE PTSUNNY 81 77 89 W6 29.99R HAVELOCK MOSUNNY 81 74 79 SW9 29.98S KENANSVILLE NOT AVBL KINSTON MOSUNNY 81 75 83 SW7 29.98R NEW BERN MOSUNNY 79 74 84 SW8 29.98S RICHLANDS SUNNY 80 76 87 SW6 29.99S ROCKY MOUNT SUNNY 81 78 91 CALM 29.97R WASHINGTON MOSUNNY 81 76 84 CALM 29.97R WHITEVILLE SUNNY 80 74 83 SW6 30.00S $$ AMZ130-135-150-152-154-156-158-170-250-252-270-ANZ085-086-088-633-658-670-271300- MARINE OBSERVATIONS STATION/POSITION TIME TEMP WIND PRES WAVE SWELL AIR SEA DIR/SP/G HT/PER HT/PER (UTC) (F) (DEG/KT/KT) (MB) (FT/S) (FT/S) CHESAPEAKE LIGHT NOT AVBL 64 E VA BEACH 1150 80 79 50/ 4/ 4 1013.9 3/ 6 2/ 6 DUCK 1100 80 64 250/ 3/ 5 1013.5 2 E DUCK 1111 67 N/A 1/ 6 OREGON INLET 1100 81 85 280/ 5/ 7 1014.4 13E OREGON INLT 1200 81 N/A 3/ 6 2/ 6 HATTERAS CG 1100 81 83 220/ 5/ 8 1014.3 DIAMOND BUOY 1150 84 84 250/ 14/ 16 1015.0 4/ 6 2/14 CAPE LOOKOUT 1200 83 250/ 15/ 17 1015.0 BEAUFORT LAB 1100 82 83 250/ 5/ 13 1014.4 30 SE NEW RVR IN 1108 84 84 250/ 17/ 21 1015.2 30 SE NEW RVR IN 1125 84 N/A 5/ 5 27 SE WRIGHTSVLE 1108 84 84 240/ 16/ 19 1015.8 5 SE WRIGHTSVLE 1108 81 80 250/ 10/ 14 1016.4 225 S CAPE HAT 1150 84 84 270/ 14/ 17 1017.5 3/ 5 2/ 8 41 SE CHARLESTON 1150 85 86 260/ 14/ 16 1016.6 4/ 5 $$

USA.gov is the U.S. government's official web portal to all federal, state and local government web resources and services.